Regional Weather Roundup
Issued by NWS Northern Indiana

Home | Current Version | Previous Version | Text Only | Print | Product List | Glossary Off
Versions: 1 2 3 4 5 6 7 8 9 10 11 12 13 14 15 16 17 18 19 20 21 22 23 24 25 26 27 28 29 30 31 32 33 34 35 36 37 38 39 40 41 42 43 44 45 46 47 48 49 50

000
ASUS43 KIWX 201510
RWRIWX

KIWX WEATHER ROUNDUP
NATIONAL WEATHER SERVICE NORTHERN INDIANA
1000 AM EST SAT DEC 20 2014

NOTE: "FAIR" INDICATES FEW OR NO CLOUDS BELOW 12,000 FEET WITH NO
SIGNIFICANT WEATHER AND/OR OBSTRUCTIONS TO VISIBILITY.

* THESE STATIONS ARE NOT UNDER NWS QUALITY CONTROL. THEY ALSO MAY NOT
  REPORT WEATHER SUCH AS PRECIPITATION OR FOG.

INZ001>027-201600-
NORTHERN INDIANA

CITY           SKY/WX    TMP DP  RH WIND       PRES   REMARKS
GARY*          CLOUDY    32  23  69 CALM      30.30S
VALPARAISO     CLOUDY    30  25  81 CALM      30.29S
MICHIGAN CITY* CLOUDY    32  21  64 S3        30.30R
LAPORTE*       CLOUDY    32  26  78 CALM      30.30R
KNOX*          CLOUDY    31  24  76 CALM      30.29R
SOUTH BEND     NOT AVBL
ELKHART*       CLOUDY    27  23  86 CALM      30.30  FOG
GOSHEN         CLOUDY    27  24  89 SE3       30.28S FOG
MONTICELLO*    CLOUDY    30  28  90 CALM      30.29S
LOGANSPORT*    CLOUDY    30  28  93 CALM      30.30S FOG
ROCHESTER*     PTSUNNY   32  30  93 CALM      30.29S
WARSAW*        CLOUDY    30  28  93 CALM      30.28F FOG
ANGOLA*        MOSUNNY   27  25  93 CALM      30.27S
FORT WAYNE     CLOUDY    28  25  88 CALM      30.30S FOG
HUNTINGTON*    CLOUDY    29  28  96 CALM      30.29S FOG
PERU/GRISSOM   CLOUDY    29  29 100 CALM      30.29S FOG
MARION*        CLOUDY    29  28  96 CALM      30.30R FOG

$$
INZ028>050-201600-
CENTRAL INDIANA

CITY           SKY/WX    TMP DP  RH WIND       PRES   REMARKS
LAFAYETTE      CLOUDY    29  27  92 CALM      30.30S FOG
KOKOMO*        CLOUDY    30  27  86 CALM      30.29S
MUNCIE*        CLOUDY    30  25  81 CALM      30.29S HAZE
INDIANAPOLIS   CLOUDY    29  25  85 CALM      30.28S FOG

$$
MIZ043>046-050>051-056>058-064>065-071>073-077>080-201600-
SOUTHWEST LOWER MICHIGAN

CITY           SKY/WX    TMP DP  RH WIND       PRES   REMARKS
BATTLE CREEK   MOSUNNY   28  23  81 CALM      30.28S
BENTON HARBOR  CLOUDY    29  25  85 E3        30.28R
COLDWATER*     MOSUNNY   28  23  83 MISG      30.28S
HILLSDALE*     CLOUDY    28  21  75 CALM      30.26F
HOLLAND        CLOUDY    27  22  81 S3        30.29R
GRAND RAPIDS   PTSUNNY   24  22  91 E3        30.28F FOG
KALAMAZOO      PTSUNNY   25  22  88 SE3       30.28S FOG
STURGIS*       MOSUNNY   25  23  93 CALM      30.27S FOG
THREE RIVERS*  CLOUDY    25  23  92 SE3       30.29S FOG

$$
OHZ001>008-015>018-024>025-201600-
NORTHWEST OHIO

CITY           SKY/WX    TMP DP  RH WIND       PRES   REMARKS
WAUSEON*       CLOUDY    28  23  80 CALM      30.30S
DEFIANCE       CLOUDY    29  25  85 CALM      30.31R FOG
FINDLAY        CLOUDY    30  24  78 CALM      30.29S
TOLEDO EXPRESS CLOUDY    29  21  72 SE3       30.30S
TOLEDO METCALF CLOUDY    31  20  63 CALM      30.32R
LIMA           CLOUDY    31  23  72 S3        30.29R

$$
AND FOR LAKE MICHIGAN COASTAL AND OPEN LAKE BUOY OBSERVATIONS

STATION/POSITION TEMP    WIND        PRES    VSBY  WAVE
                 AIR SEA DIR/SP/G                  HT/PER
                 (F)     (DEG/KT/KT) (MB)    (MI)  (FT/S)
CALUMET HARBOR    31     200/  4/  5 1024.4R
SAINT JOSEPH      32     110/  2/  3 1026.1R
MICHIGAN CITY CG     39                N/A    3 1/2  1

$$
&&


USA.gov is the U.S. government's official web portal to all federal, state and local government web resources and services.